User: anonymous   Login
Location: Bonac
(42.8765°N, 0.9753°E)
Time: 14:06:57
(UTC+00:00)
Language:

SJ 16-02 - Orbit

View from above orbital plane
View from above orbital plane
View from above satellite
View from above satellite

Ground track
Ground track

The orbit is defined by the following mean orbital elements,

1 41634U          26067.18764013 +.00000000 +00000-0 +13701-3 0 00007
2 41634  75.0005 110.1228 0008651 278.7810  81.2399 14.93227779    08
Epoch (UTC): 08 March 2026 04:30:12
Eccentricity: 0.0008651
inclination: 75.0005°
perigee height: 582 km
apogee height: 594 km
right ascension of ascending node: 110.1228°
argument of perigee: 278.7810°
revolutions per day: 14.93227779
mean anomaly at epoch: 81.2399°

The dashed part of the orbit path shows where the satellite is in the earth's shadow,  

DLR